Year,Month,Day,Hour,Minute,Value (Times are PST for temperature in C)
2007,01,12,00,00,-2.80
2007,01,12,00,01,-2.80
2007,01,12,00,02,-2.80
2007,01,12,00,03,-2.80
2007,01,12,00,04,-2.80
2007,01,12,00,05,-2.80
2007,01,12,00,06,-2.90
2007,01,12,00,07,-2.90
2007,01,12,00,08,-2.90
2007,01,12,00,09,-2.90
2007,01,12,00,10,-2.90
2007,01,12,00,11,-3.00
2007,01,12,00,12,-3.00
2007,01,12,00,13,-3.00
2007,01,12,00,14,-3.00
2007,01,12,00,15,-3.10
2007,01,12,00,16,-3.10
2007,01,12,00,17,-3.10
2007,01,12,00,18,-3.20
2007,01,12,00,19,-3.20
2007,01,12,00,20,-3.20
2007,01,12,00,21,-3.30
2007,01,12,00,22,-3.30
2007,01,12,00,23,-3.30
2007,01,12,00,24,-3.30
2007,01,12,00,25,-3.30
2007,01,12,00,26,-3.30
2007,01,12,00,27,-3.30
2007,01,12,00,28,-3.30
2007,01,12,00,29,-3.30
2007,01,12,00,30,-3.30
2007,01,12,00,31,-3.30
2007,01,12,00,32,-3.30
2007,01,12,00,33,-3.30
2007,01,12,00,34,-3.30
2007,01,12,00,35,-3.30
2007,01,12,00,36,-3.30
2007,01,12,00,37,-3.30
2007,01,12,00,38,-3.30
2007,01,12,00,39,-3.30
2007,01,12,00,40,-3.30
2007,01,12,00,41,-3.30
2007,01,12,00,42,-3.30
2007,01,12,00,43,-3.30
2007,01,12,00,44,-3.30
2007,01,12,00,45,-3.30
2007,01,12,00,46,-3.30
2007,01,12,00,47,-3.30
2007,01,12,00,48,-3.30
2007,01,12,00,49,-3.30
2007,01,12,00,50,-3.40
2007,01,12,00,51,-3.40
2007,01,12,00,52,-3.40
2007,01,12,00,53,-3.40
2007,01,12,00,54,-3.40
2007,01,12,00,55,-3.50
2007,01,12,00,56,-3.50
2007,01,12,00,57,-3.50
2007,01,12,00,58,-3.50
2007,01,12,00,59,-3.50
2007,01,12,01,00,-3.50
2007,01,12,01,01,-3.50
2007,01,12,01,02,-3.40
2007,01,12,01,03,-3.40
2007,01,12,01,04,-3.30
2007,01,12,01,05,-3.30
2007,01,12,01,06,-3.30
2007,01,12,01,07,-3.30
2007,01,12,01,08,-3.30
2007,01,12,01,09,-3.30
2007,01,12,01,10,-3.20
2007,01,12,01,11,-3.20
2007,01,12,01,12,-3.20
2007,01,12,01,13,-3.20
2007,01,12,01,14,-3.10
2007,01,12,01,15,-3.20
2007,01,12,01,16,-3.20
2007,01,12,01,17,-3.30
2007,01,12,01,18,-3.30
2007,01,12,01,19,-3.30
2007,01,12,01,20,-3.30
2007,01,12,01,21,-3.30
2007,01,12,01,22,-3.30
2007,01,12,01,23,-3.20
2007,01,12,01,24,-3.20
2007,01,12,01,25,-3.10
2007,01,12,01,26,-3.10
2007,01,12,01,27,-3.10
2007,01,12,01,28,-3.10
2007,01,12,01,29,-3.10
2007,01,12,01,30,-3.00
2007,01,12,01,31,-3.00
2007,01,12,01,32,-3.00
2007,01,12,01,33,-3.00
2007,01,12,01,34,-2.90
2007,01,12,01,35,-2.90
2007,01,12,01,36,-2.80
2007,01,12,01,37,-2.80
2007,01,12,01,38,-2.80
2007,01,12,01,39,-2.80
2007,01,12,01,40,-2.80
2007,01,12,01,41,-2.80
2007,01,12,01,42,-2.80
2007,01,12,01,43,-2.80
2007,01,12,01,44,-2.80
2007,01,12,01,45,-2.80
2007,01,12,01,46,-2.80
2007,01,12,01,47,-2.80
2007,01,12,01,48,-2.80
2007,01,12,01,49,-2.80
2007,01,12,01,50,-2.80
2007,01,12,01,51,-2.80
2007,01,12,01,52,-2.80
2007,01,12,01,53,-2.80
2007,01,12,01,54,-2.80
2007,01,12,01,55,-2.80
2007,01,12,01,56,-2.80
2007,01,12,01,57,-2.80
2007,01,12,01,58,-2.90
2007,01,12,01,59,-2.90
2007,01,12,02,00,-2.90
2007,01,12,02,01,-2.90
2007,01,12,02,02,-2.90
2007,01,12,02,03,-2.90
2007,01,12,02,04,-2.90
2007,01,12,02,05,-3.00
2007,01,12,02,06,-3.00
2007,01,12,02,07,-3.00
2007,01,12,02,08,-3.10
2007,01,12,02,09,-3.10
2007,01,12,02,10,-3.20
2007,01,12,02,11,-3.20
2007,01,12,02,12,-3.20
2007,01,12,02,13,-3.20
2007,01,12,02,14,-3.30
2007,01,12,02,15,-3.30
2007,01,12,02,16,-3.30
2007,01,12,02,17,-3.30
2007,01,12,02,18,-3.30
2007,01,12,02,19,-3.30
2007,01,12,02,20,-3.40
2007,01,12,02,21,-3.50
2007,01,12,02,22,-3.50
2007,01,12,02,23,-3.50
2007,01,12,02,24,-3.60
2007,01,12,02,25,-3.60
2007,01,12,02,26,-3.60
2007,01,12,02,27,-3.60
2007,01,12,02,28,-3.70
2007,01,12,02,29,-3.70
2007,01,12,02,30,-3.70
2007,01,12,02,31,-3.70
2007,01,12,02,32,-3.70
2007,01,12,02,33,-3.70
2007,01,12,02,34,-3.70
2007,01,12,02,35,-3.70
2007,01,12,02,36,-3.70
2007,01,12,02,37,-3.70
2007,01,12,02,38,-3.70
2007,01,12,02,39,-3.80
2007,01,12,02,40,-3.80
2007,01,12,02,41,-3.80
2007,01,12,02,42,-3.90
2007,01,12,02,43,-3.90
2007,01,12,02,44,-3.90
2007,01,12,02,45,-3.90
2007,01,12,02,46,-3.90
2007,01,12,02,47,-3.90
2007,01,12,02,48,-3.90
2007,01,12,02,49,-3.80
2007,01,12,02,50,-3.90
2007,01,12,02,51,-3.90
2007,01,12,02,52,-3.90
2007,01,12,02,53,-3.90
2007,01,12,02,54,-3.90
2007,01,12,02,55,-3.90
2007,01,12,02,56,-3.90
2007,01,12,02,57,-3.80
2007,01,12,02,58,-3.80
2007,01,12,02,59,-3.80
2007,01,12,03,00,-3.80
2007,01,12,03,01,-3.80
2007,01,12,03,02,-3.80
2007,01,12,03,03,-3.80
2007,01,12,03,04,-3.90
2007,01,12,03,05,-3.90
2007,01,12,03,06,-3.90
2007,01,12,03,07,-3.90
2007,01,12,03,08,-3.90
2007,01,12,03,09,-3.90
2007,01,12,03,10,-3.90
2007,01,12,03,11,-3.90
2007,01,12,03,12,-3.90
2007,01,12,03,13,-3.90
2007,01,12,03,14,-3.90
2007,01,12,03,15,-3.90
2007,01,12,03,16,-3.90
2007,01,12,03,17,-3.90
2007,01,12,03,18,-3.90
2007,01,12,03,19,-3.90
2007,01,12,03,20,-3.90
2007,01,12,03,21,-3.90
2007,01,12,03,22,-3.80
2007,01,12,03,23,-3.80
2007,01,12,03,24,-3.80
2007,01,12,03,25,-3.80
2007,01,12,03,26,-3.80
2007,01,12,03,27,-3.80
2007,01,12,03,28,-3.80
2007,01,12,03,29,-3.80
2007,01,12,03,30,-3.70
2007,01,12,03,31,-3.70
2007,01,12,03,32,-3.70
2007,01,12,03,33,-3.80
2007,01,12,03,34,-3.80
2007,01,12,03,35,-3.90
2007,01,12,03,36,-3.90
2007,01,12,03,37,-3.90
2007,01,12,03,38,-3.90
2007,01,12,03,39,-3.90
2007,01,12,03,40,-3.90
2007,01,12,03,41,-4.00
2007,01,12,03,42,-4.00
2007,01,12,03,43,-3.90
2007,01,12,03,44,-4.00
2007,01,12,03,45,-4.00
2007,01,12,03,46,-4.00
2007,01,12,03,47,-4.00
2007,01,12,03,48,-4.00
2007,01,12,03,49,-4.00
2007,01,12,03,50,-4.10
2007,01,12,03,51,-4.10
2007,01,12,03,52,-4.10
2007,01,12,03,53,-4.00
2007,01,12,03,54,-4.00
2007,01,12,03,55,-4.00
2007,01,12,03,56,-4.00
2007,01,12,03,57,-4.00
2007,01,12,03,58,-3.90
2007,01,12,03,59,-3.90
2007,01,12,04,00,-3.90
2007,01,12,04,01,-3.90
2007,01,12,04,02,-3.80
2007,01,12,04,03,-3.80
2007,01,12,04,04,-3.80
2007,01,12,04,05,-3.70
2007,01,12,04,06,-3.70
2007,01,12,04,07,-3.70
2007,01,12,04,08,-3.70
2007,01,12,04,09,-3.70
2007,01,12,04,10,-3.70
2007,01,12,04,11,-3.70
2007,01,12,04,12,-3.70
2007,01,12,04,13,-3.70
2007,01,12,04,14,-3.60
2007,01,12,04,15,-3.60
2007,01,12,04,16,-3.50
2007,01,12,04,17,-3.40
2007,01,12,04,18,-3.40
2007,01,12,04,19,-3.30
2007,01,12,04,20,-3.30
2007,01,12,04,21,-3.30
2007,01,12,04,22,-3.20
2007,01,12,04,23,-3.20
2007,01,12,04,24,-3.30
2007,01,12,04,25,-3.30
2007,01,12,04,26,-3.30
2007,01,12,04,27,-3.30
2007,01,12,04,28,-3.30
2007,01,12,04,29,-3.30
2007,01,12,04,30,-3.30
2007,01,12,04,31,-3.30
2007,01,12,04,32,-3.30
2007,01,12,04,33,-3.30
2007,01,12,04,34,-3.30
2007,01,12,04,35,-3.30
2007,01,12,04,36,-3.30
2007,01,12,04,37,-3.30
2007,01,12,04,38,-3.30
2007,01,12,04,39,-3.20
2007,01,12,04,40,-3.20
2007,01,12,04,41,-3.20
2007,01,12,04,42,-3.20
2007,01,12,04,43,-3.30
2007,01,12,04,44,-3.30
2007,01,12,04,45,-3.30
2007,01,12,04,46,-3.30
2007,01,12,04,47,-3.30
2007,01,12,04,48,-3.30
2007,01,12,04,49,-3.40
2007,01,12,04,50,-3.40
2007,01,12,04,51,-3.40
2007,01,12,04,52,-3.40
2007,01,12,04,53,-3.50
2007,01,12,04,54,-3.50
2007,01,12,04,55,-3.50
2007,01,12,04,56,-3.50
2007,01,12,04,57,-3.50
2007,01,12,04,58,-3.60
2007,01,12,04,59,-3.60
2007,01,12,05,00,-3.60
2007,01,12,05,01,-3.70
2007,01,12,05,02,-3.70
2007,01,12,05,03,-3.80
2007,01,12,05,04,-3.90
2007,01,12,05,05,-3.90
2007,01,12,05,06,-4.00
2007,01,12,05,07,-4.10
2007,01,12,05,08,-4.10
2007,01,12,05,09,-4.10
2007,01,12,05,10,-4.10
2007,01,12,05,11,-4.10
2007,01,12,05,12,-4.10
2007,01,12,05,13,-4.10
2007,01,12,05,14,-4.00
2007,01,12,05,15,-4.00
2007,01,12,05,16,-4.00
2007,01,12,05,17,-4.00
2007,01,12,05,18,-4.10
2007,01,12,05,19,-4.10
2007,01,12,05,20,-4.20
2007,01,12,05,21,-4.20
2007,01,12,05,22,-4.20
2007,01,12,05,23,-4.20
2007,01,12,05,24,-4.20
2007,01,12,05,25,-4.10
2007,01,12,05,26,-4.20
2007,01,12,05,27,-4.20
2007,01,12,05,28,-4.20
2007,01,12,05,29,-4.20
2007,01,12,05,30,-4.30
2007,01,12,05,31,-4.30
2007,01,12,05,32,-4.30
2007,01,12,05,33,-4.30
2007,01,12,05,34,-4.20
2007,01,12,05,35,-4.20
2007,01,12,05,36,-4.20
2007,01,12,05,37,-4.20
2007,01,12,05,38,-4.20
2007,01,12,05,39,-4.10
2007,01,12,05,40,-4.10
2007,01,12,05,41,-4.10
2007,01,12,05,42,-4.20
2007,01,12,05,43,-4.20
2007,01,12,05,44,-4.20
2007,01,12,05,45,-4.20
2007,01,12,05,46,-4.20
2007,01,12,05,47,-4.20
2007,01,12,05,48,-4.20
2007,01,12,05,49,-4.20
2007,01,12,05,50,-4.20
2007,01,12,05,51,-4.10
2007,01,12,05,52,-4.00
2007,01,12,05,53,-3.90
2007,01,12,05,54,-3.90
2007,01,12,05,55,-3.80
2007,01,12,05,56,-3.80
2007,01,12,05,57,-3.80
2007,01,12,05,58,-3.80
2007,01,12,05,59,-3.80
2007,01,12,06,00,-3.90
2007,01,12,06,01,-3.90
2007,01,12,06,02,-3.90
2007,01,12,06,03,-4.00
2007,01,12,06,04,-4.00
2007,01,12,06,05,-4.00
2007,01,12,06,06,-4.10
2007,01,12,06,07,-4.10
2007,01,12,06,08,-4.20
2007,01,12,06,09,-4.20
2007,01,12,06,10,-4.20
2007,01,12,06,11,-4.20
2007,01,12,06,12,-4.10
2007,01,12,06,13,-4.10
2007,01,12,06,14,-4.10
2007,01,12,06,15,-4.10
2007,01,12,06,16,-4.00
2007,01,12,06,17,-4.00
2007,01,12,06,18,-4.00
2007,01,12,06,19,-4.00
2007,01,12,06,20,-4.00
2007,01,12,06,21,-4.00
2007,01,12,06,22,-4.00
2007,01,12,06,23,-4.00
2007,01,12,06,24,-4.00
2007,01,12,06,25,-3.90
2007,01,12,06,26,-3.80
2007,01,12,06,27,-3.70
2007,01,12,06,28,-3.70
2007,01,12,06,29,-3.70
2007,01,12,06,30,-3.70
2007,01,12,06,31,-3.70
2007,01,12,06,32,-3.70
2007,01,12,06,33,-3.80
2007,01,12,06,34,-3.90
2007,01,12,06,35,-3.90
2007,01,12,06,36,-3.90
2007,01,12,06,37,-3.90
2007,01,12,06,38,-3.80
2007,01,12,06,39,-3.70
2007,01,12,06,40,-3.70
2007,01,12,06,41,-3.70
2007,01,12,06,42,-3.70
2007,01,12,06,43,-3.80
2007,01,12,06,44,-3.80
2007,01,12,06,45,-3.80
2007,01,12,06,46,-3.80
2007,01,12,06,47,-3.80
2007,01,12,06,48,-3.90
2007,01,12,06,49,-3.90
2007,01,12,06,50,-4.00
2007,01,12,06,51,-4.00
2007,01,12,06,52,-4.00
2007,01,12,06,53,-4.00
2007,01,12,06,54,-4.00
2007,01,12,06,55,-4.00
2007,01,12,06,56,-4.00
2007,01,12,06,57,-4.10
2007,01,12,06,58,-4.10
2007,01,12,06,59,-4.10
2007,01,12,07,00,-4.20
2007,01,12,07,01,-4.20
2007,01,12,07,02,-4.20
2007,01,12,07,03,-4.20
2007,01,12,07,04,-4.20
2007,01,12,07,05,-4.30
2007,01,12,07,06,-4.40
2007,01,12,07,07,-4.40
2007,01,12,07,08,-4.40
2007,01,12,07,09,-4.50
2007,01,12,07,10,-4.50
2007,01,12,07,11,-4.50
2007,01,12,07,12,-4.50
2007,01,12,07,13,-4.50
2007,01,12,07,14,-4.50
2007,01,12,07,15,-4.50
2007,01,12,07,16,-4.50
2007,01,12,07,17,-4.50
2007,01,12,07,18,-4.60
2007,01,12,07,19,-4.70
2007,01,12,07,20,-4.70
2007,01,12,07,21,-4.70
2007,01,12,07,22,-4.70
2007,01,12,07,23,-4.70
2007,01,12,07,24,-4.70
2007,01,12,07,25,-4.70
2007,01,12,07,26,-4.70
2007,01,12,07,27,-4.70
2007,01,12,07,28,-4.80
2007,01,12,07,29,-4.80
2007,01,12,07,30,-4.80
2007,01,12,07,31,-4.80
2007,01,12,07,32,-4.80
2007,01,12,07,33,-4.80
2007,01,12,07,34,-4.70
2007,01,12,07,35,-4.70
2007,01,12,07,36,-4.70
2007,01,12,07,37,-4.70
2007,01,12,07,38,-4.60
2007,01,12,07,39,-4.50
2007,01,12,07,40,-4.50
2007,01,12,07,41,-4.50
2007,01,12,07,42,-4.60
2007,01,12,07,43,-4.60
2007,01,12,07,44,-4.60
2007,01,12,07,45,-4.60
2007,01,12,07,46,-4.50
2007,01,12,07,47,-4.50
2007,01,12,07,48,-4.40
2007,01,12,07,49,-4.40
2007,01,12,07,50,-4.40
2007,01,12,07,51,-4.40
2007,01,12,07,52,-4.40
2007,01,12,07,53,-4.40
2007,01,12,07,54,-4.40
2007,01,12,07,55,-4.40
2007,01,12,07,56,-4.40
2007,01,12,07,57,-4.40
2007,01,12,07,58,-4.30
2007,01,12,07,59,-4.30
2007,01,12,08,00,-4.30
2007,01,12,08,01,-4.30
2007,01,12,08,02,-4.30
2007,01,12,08,03,-4.30
2007,01,12,08,04,-4.20
2007,01,12,08,05,-4.20
2007,01,12,08,06,-4.20
2007,01,12,08,07,-4.20
2007,01,12,08,08,-4.20
2007,01,12,08,09,-4.20
2007,01,12,08,10,-4.20
2007,01,12,08,11,-4.20
2007,01,12,08,12,-4.20
2007,01,12,08,13,-4.20
2007,01,12,08,14,-4.20
2007,01,12,08,15,-4.20
2007,01,12,08,16,-4.10
2007,01,12,08,17,-4.10
2007,01,12,08,18,-4.10
2007,01,12,08,19,-4.10
2007,01,12,08,20,-4.00
2007,01,12,08,21,-4.00
2007,01,12,08,22,-4.00
2007,01,12,08,23,-4.00
2007,01,12,08,24,-4.00
2007,01,12,08,25,-4.00
2007,01,12,08,26,-4.00
2007,01,12,08,27,-4.00
2007,01,12,08,28,-4.00
2007,01,12,08,29,-4.00
2007,01,12,08,30,-4.00
2007,01,12,08,31,-4.00
2007,01,12,08,32,-4.00
2007,01,12,08,33,-4.00
2007,01,12,08,34,-3.90
2007,01,12,08,35,-3.90
2007,01,12,08,36,-3.90
2007,01,12,08,37,-3.90
2007,01,12,08,38,-3.90
2007,01,12,08,39,-4.00
2007,01,12,08,40,-4.00
2007,01,12,08,41,-4.00
2007,01,12,08,42,-4.10
2007,01,12,08,43,-4.10
2007,01,12,08,44,-4.10
2007,01,12,08,45,-4.20
2007,01,12,08,46,-4.20
2007,01,12,08,47,-4.20
2007,01,12,08,48,-4.20
2007,01,12,08,49,-4.20
2007,01,12,08,50,-4.20
2007,01,12,08,51,-4.10
2007,01,12,08,52,-4.10
2007,01,12,08,53,-4.10
2007,01,12,08,54,-4.10
2007,01,12,08,55,-4.10
2007,01,12,08,56,-4.10
2007,01,12,08,57,-4.10
2007,01,12,08,58,-4.00
2007,01,12,08,59,-4.00
2007,01,12,09,00,-4.00
2007,01,12,09,01,-3.90
2007,01,12,09,02,-3.90
2007,01,12,09,03,-3.90
2007,01,12,09,04,-3.80
2007,01,12,09,05,-3.80
2007,01,12,09,06,-3.70
2007,01,12,09,07,-3.70
2007,01,12,09,08,-3.60
2007,01,12,09,09,-3.60
2007,01,12,09,10,-3.50
2007,01,12,09,11,-3.40
2007,01,12,09,12,-3.40
2007,01,12,09,13,-3.30
2007,01,12,09,14,-3.30
2007,01,12,09,15,-3.30
2007,01,12,09,16,-3.20
2007,01,12,09,17,-3.10
2007,01,12,09,18,-3.10
2007,01,12,09,19,-3.00
2007,01,12,09,20,-3.00
2007,01,12,09,21,-2.90
2007,01,12,09,22,-2.90
2007,01,12,09,23,-2.80
2007,01,12,09,24,-2.80
2007,01,12,09,25,-2.70
2007,01,12,09,26,-2.60
2007,01,12,09,27,-2.60
2007,01,12,09,28,-2.50
2007,01,12,09,29,-2.40
2007,01,12,09,30,-2.40
2007,01,12,09,31,-2.30
2007,01,12,09,32,-2.30
2007,01,12,09,33,-2.30
2007,01,12,09,34,-2.30
2007,01,12,09,35,-2.30
2007,01,12,09,36,-2.30
2007,01,12,09,37,-2.30
2007,01,12,09,38,-2.30
2007,01,12,09,39,-2.30
2007,01,12,09,40,-2.30
2007,01,12,09,41,-2.40
2007,01,12,09,42,-2.40
2007,01,12,09,43,-2.40
2007,01,12,09,44,-2.30
2007,01,12,09,45,-2.30
2007,01,12,09,46,-2.30
2007,01,12,09,47,-2.30
2007,01,12,09,48,-2.30
2007,01,12,09,49,-2.30
2007,01,12,09,50,-2.30
2007,01,12,09,51,-2.30
2007,01,12,09,52,-2.40
2007,01,12,09,53,-2.40
2007,01,12,09,54,-2.40
2007,01,12,09,55,-2.30
2007,01,12,09,56,-2.30
2007,01,12,09,57,-2.30
2007,01,12,09,58,-2.30
2007,01,12,09,59,-2.30
2007,01,12,10,00,-2.30
2007,01,12,10,01,-2.30
2007,01,12,10,02,-2.30
2007,01,12,10,03,-2.30
2007,01,12,10,04,-2.30
2007,01,12,10,05,-2.30
2007,01,12,10,06,-2.30
2007,01,12,10,07,-2.30
2007,01,12,10,08,-2.30
2007,01,12,10,09,-2.30
2007,01,12,10,10,-2.30
2007,01,12,10,11,-2.30
2007,01,12,10,12,-2.30
2007,01,12,13,35,1.40
2007,01,12,13,36,1.40
2007,01,12,13,37,1.40
2007,01,12,13,38,1.40
2007,01,12,13,39,1.40
2007,01,12,13,40,1.40
2007,01,12,13,41,1.30
2007,01,12,13,42,1.20
2007,01,12,13,43,1.10
2007,01,12,13,44,1.00
2007,01,12,13,45,0.90
2007,01,12,13,46,0.80
2007,01,12,13,47,0.70
2007,01,12,13,48,0.60
2007,01,12,13,49,0.50
2007,01,12,13,50,0.50
2007,01,12,13,51,0.40
2007,01,12,13,52,0.40
2007,01,12,13,53,0.40
2007,01,12,13,54,0.40
2007,01,12,13,55,0.40
2007,01,12,13,56,0.40
2007,01,12,13,57,0.40
2007,01,12,13,58,0.40
2007,01,12,13,59,0.40
2007,01,12,14,00,0.40
2007,01,12,14,01,0.40
2007,01,12,14,02,0.40
2007,01,12,14,03,0.40
2007,01,12,14,04,0.40
2007,01,12,14,05,0.40
2007,01,12,14,06,0.40
2007,01,12,14,07,0.40
2007,01,12,14,08,0.40
2007,01,12,14,09,0.40
2007,01,12,14,10,0.40
2007,01,12,14,11,0.40
2007,01,12,14,12,0.40
2007,01,12,14,13,0.40
2007,01,12,14,14,0.40
2007,01,12,14,15,0.30
2007,01,12,14,16,0.30
2007,01,12,14,17,0.30
2007,01,12,14,18,0.20
2007,01,12,14,19,0.20
2007,01,12,14,20,0.20
2007,01,12,14,21,0.20
2007,01,12,14,22,0.30
2007,01,12,14,23,0.40
2007,01,12,14,24,0.40
2007,01,12,14,25,0.50
2007,01,12,14,26,0.60
2007,01,12,14,27,0.60
2007,01,12,14,28,0.50
2007,01,12,14,29,0.50
2007,01,12,14,30,0.50
2007,01,12,14,31,0.50
2007,01,12,14,32,0.40
2007,01,12,14,33,0.50
2007,01,12,14,34,0.50
2007,01,12,14,35,0.40
2007,01,12,14,36,0.40
2007,01,12,14,37,0.40
2007,01,12,14,38,0.40
2007,01,12,14,39,0.40
2007,01,12,14,40,0.40
2007,01,12,14,41,0.40
2007,01,12,14,42,0.30
2007,01,12,14,43,0.30
2007,01,12,14,44,0.30
2007,01,12,14,45,0.20
2007,01,12,14,46,0.20
2007,01,12,14,47,0.20
2007,01,12,14,48,0.30
2007,01,12,14,49,0.30
2007,01,12,14,56,0.20
2007,01,12,14,57,0.20
2007,01,12,14,58,0.20
2007,01,12,14,59,0.20
2007,01,12,15,00,0.20
2007,01,12,15,01,0.20
2007,01,12,15,02,0.20
2007,01,12,15,03,0.20
2007,01,12,15,04,0.30
2007,01,12,15,05,0.30
2007,01,12,15,06,0.30
2007,01,12,15,07,0.30
2007,01,12,15,08,0.30
2007,01,12,15,09,0.40
2007,01,12,15,10,0.40
2007,01,12,15,11,0.40
2007,01,12,15,12,0.50
2007,01,12,15,13,0.50
2007,01,12,15,14,0.60
2007,01,12,15,15,0.70
2007,01,12,15,16,0.80
2007,01,12,15,17,0.80
2007,01,12,15,18,0.80
2007,01,12,15,19,0.90
2007,01,12,15,20,0.90
2007,01,12,15,21,0.90
2007,01,12,15,22,0.90
2007,01,12,15,23,0.90
2007,01,12,15,24,0.90
2007,01,12,15,25,0.90
2007,01,12,15,26,1.00
2007,01,12,15,27,1.10
2007,01,12,15,28,1.10
2007,01,12,15,29,1.10
2007,01,12,15,30,1.10
2007,01,12,15,31,1.10
2007,01,12,15,32,1.10
2007,01,12,15,33,1.10
2007,01,12,15,34,1.20
2007,01,12,15,35,1.20
2007,01,12,15,36,1.20
2007,01,12,15,37,1.20
2007,01,12,15,38,1.20
2007,01,12,15,39,1.30
2007,01,12,15,40,1.30
2007,01,12,15,41,1.30
2007,01,12,15,42,1.30
2007,01,12,15,43,1.20
2007,01,12,15,44,1.10
2007,01,12,15,45,1.10
2007,01,12,15,46,1.10
2007,01,12,15,47,1.10
2007,01,12,15,48,1.00
2007,01,12,15,49,1.00
2007,01,12,15,50,1.00
2007,01,12,15,51,1.00
2007,01,12,15,52,1.00
2007,01,12,15,53,0.80
2007,01,12,15,54,0.80
2007,01,12,15,55,0.70
2007,01,12,15,56,0.60
2007,01,12,15,57,0.60
2007,01,12,15,58,0.50
2007,01,12,15,59,0.50
2007,01,12,16,00,0.50
2007,01,12,16,01,0.40
2007,01,12,16,02,0.40
2007,01,12,16,03,0.40
2007,01,12,16,04,0.40
2007,01,12,16,05,0.40
2007,01,12,16,06,0.40
2007,01,12,16,07,0.40
2007,01,12,16,08,0.40
2007,01,12,16,09,0.40
2007,01,12,16,10,0.40
2007,01,12,16,11,0.40
2007,01,12,16,12,0.40
2007,01,12,16,13,0.40
2007,01,12,16,14,0.40
2007,01,12,16,15,0.40
2007,01,12,16,16,0.40
2007,01,12,16,17,0.40
2007,01,12,16,18,0.40
2007,01,12,16,19,0.40
2007,01,12,16,20,0.40
2007,01,12,16,21,0.40
2007,01,12,16,22,0.40
2007,01,12,16,23,0.50
2007,01,12,16,24,0.50
2007,01,12,16,25,0.40
2007,01,12,16,26,0.40
2007,01,12,16,27,0.40
2007,01,12,16,28,0.40
2007,01,12,16,29,0.40
2007,01,12,16,30,0.40
2007,01,12,16,31,0.40
2007,01,12,16,32,0.40
2007,01,12,16,33,0.40
2007,01,12,16,34,0.40
2007,01,12,16,35,0.40
2007,01,12,16,36,0.40
2007,01,12,16,37,0.40
2007,01,12,16,38,0.40
2007,01,12,16,39,0.40
2007,01,12,16,40,0.40
2007,01,12,16,41,0.40
2007,01,12,16,42,0.40
2007,01,12,16,43,0.40
2007,01,12,16,44,0.30
2007,01,12,16,45,0.30
2007,01,12,16,46,0.20
2007,01,12,16,47,0.20
2007,01,12,16,48,0.20
2007,01,12,16,49,0.20
2007,01,12,16,50,0.20
2007,01,12,16,51,0.20
2007,01,12,16,52,0.20
2007,01,12,16,53,0.30
2007,01,12,16,54,0.30
2007,01,12,16,55,0.30
2007,01,12,16,56,0.30
2007,01,12,16,57,0.30
2007,01,12,16,58,0.30
2007,01,12,16,59,0.30
2007,01,12,17,00,0.30
2007,01,12,17,01,0.30
2007,01,12,17,02,0.20
2007,01,12,17,03,0.20
2007,01,12,17,04,0.10
2007,01,12,17,05,0.10
2007,01,12,17,06,0.10
2007,01,12,17,07,0.10
2007,01,12,17,08,0.10
2007,01,12,17,09,0.10
2007,01,12,17,10,0.00
2007,01,12,17,11,-0.10
2007,01,12,17,12,-0.10
2007,01,12,17,13,-0.10
2007,01,12,17,14,-0.10
2007,01,12,17,15,-0.10
2007,01,12,17,16,-0.10
2007,01,12,17,17,-0.10
2007,01,12,17,18,-0.10
2007,01,12,17,19,-0.10
2007,01,12,17,20,-0.10
2007,01,12,17,21,-0.10
2007,01,12,17,22,-0.10
2007,01,12,17,23,-0.10
2007,01,12,17,24,-0.10
2007,01,12,17,25,-0.10
2007,01,12,17,26,-0.10
2007,01,12,17,27,-0.10
2007,01,12,17,28,-0.20
2007,01,12,17,29,-0.20
2007,01,12,17,30,-0.20
2007,01,12,17,31,-0.30
2007,01,12,17,32,-0.30
2007,01,12,17,33,-0.40
2007,01,12,17,34,-0.40
2007,01,12,17,35,-0.40
2007,01,12,17,36,-0.40
2007,01,12,17,37,-0.40
2007,01,12,17,38,-0.60
2007,01,12,17,39,-0.60
2007,01,12,17,40,-0.60
2007,01,12,17,41,-0.60
2007,01,12,17,42,-0.60
2007,01,12,17,43,-0.60
2007,01,12,17,44,-0.60
2007,01,12,17,45,-0.60
2007,01,12,17,46,-0.60
2007,01,12,17,47,-0.60
2007,01,12,17,48,-0.60
2007,01,12,17,49,-0.60
2007,01,12,17,50,-0.60
2007,01,12,17,51,-0.60
2007,01,12,17,52,-0.60
2007,01,12,17,53,-0.60
2007,01,12,17,54,-0.60
2007,01,12,17,55,-0.60
2007,01,12,17,56,-0.60
2007,01,12,17,57,-0.50
2007,01,12,17,58,-0.50
2007,01,12,17,59,-0.50
2007,01,12,18,00,-0.60
2007,01,12,18,01,-0.60
2007,01,12,18,02,-0.60
2007,01,12,18,03,-0.60
2007,01,12,18,04,-0.60
2007,01,12,18,05,-0.60
2007,01,12,18,06,-0.60
2007,01,12,18,07,-0.60
2007,01,12,18,08,-0.60
2007,01,12,18,09,-0.60
2007,01,12,18,10,-0.60
2007,01,12,18,11,-0.60
2007,01,12,18,12,-0.70
2007,01,12,18,13,-0.70
2007,01,12,18,14,-0.70
2007,01,12,18,15,-0.70
2007,01,12,18,16,-0.60
2007,01,12,18,17,-0.60
2007,01,12,18,18,-0.60
2007,01,12,18,19,-0.60
2007,01,12,18,20,-0.60
2007,01,12,18,21,-0.50
2007,01,12,18,22,-0.40
2007,01,12,18,23,-0.40
2007,01,12,18,24,-0.40
2007,01,12,18,25,-0.40
2007,01,12,18,26,-0.40
2007,01,12,18,27,-0.40
2007,01,12,18,28,-0.40
2007,01,12,18,29,-0.40
2007,01,12,18,30,-0.40
2007,01,12,18,31,-0.40
2007,01,12,18,32,-0.40
2007,01,12,18,33,-0.40
2007,01,12,18,34,-0.40
2007,01,12,18,35,-0.40
2007,01,12,18,36,-0.40
2007,01,12,18,37,-0.30
2007,01,12,18,38,-0.40
2007,01,12,18,39,-0.40
2007,01,12,18,40,-0.40
2007,01,12,18,41,-0.40
2007,01,12,18,42,-0.40
2007,01,12,18,43,-0.40
2007,01,12,18,44,-0.40
2007,01,12,18,45,-0.40
2007,01,12,18,46,-0.40
2007,01,12,18,47,-0.40
2007,01,12,18,48,-0.40
2007,01,12,18,49,-0.40
2007,01,12,18,50,-0.40
2007,01,12,18,51,-0.50
2007,01,12,18,52,-0.60
2007,01,12,18,53,-0.60
2007,01,12,18,54,-0.60
2007,01,12,18,55,-0.60
2007,01,12,18,56,-0.60
2007,01,12,18,57,-0.70
2007,01,12,18,58,-0.70
2007,01,12,18,59,-0.80
2007,01,12,19,00,-0.80
2007,01,12,19,01,-0.90
2007,01,12,19,02,-0.90
2007,01,12,19,03,-0.90
2007,01,12,19,04,-0.90
2007,01,12,19,05,-0.80
2007,01,12,19,06,-0.80
2007,01,12,19,07,-0.80
2007,01,12,19,08,-0.80
2007,01,12,19,09,-0.80
2007,01,12,19,10,-0.80
2007,01,12,19,11,-0.80
2007,01,12,19,12,-0.80
2007,01,12,19,13,-0.90
2007,01,12,19,14,-0.90
2007,01,12,19,15,-0.90
2007,01,12,19,16,-0.90
2007,01,12,19,17,-0.80
2007,01,12,19,18,-0.80
2007,01,12,19,19,-0.80
2007,01,12,19,20,-0.90
2007,01,12,19,21,-0.80
2007,01,12,19,22,-0.80
2007,01,12,19,23,-0.90
2007,01,12,19,24,-0.80
2007,01,12,19,25,-0.80
2007,01,12,19,26,-0.80
2007,01,12,19,27,-0.80
2007,01,12,19,28,-0.80
2007,01,12,19,29,-0.80
2007,01,12,19,30,-0.80
2007,01,12,19,31,-0.80
2007,01,12,19,32,-0.80
2007,01,12,19,33,-0.80
2007,01,12,19,34,-0.80
2007,01,12,19,35,-0.90
2007,01,12,19,36,-0.90
2007,01,12,19,37,-0.90
2007,01,12,19,38,-0.90
2007,01,12,19,39,-0.90
2007,01,12,19,40,-0.90
2007,01,12,19,41,-0.90
2007,01,12,19,42,-0.90
2007,01,12,19,43,-1.00
2007,01,12,19,44,-1.10
2007,01,12,19,45,-1.10
2007,01,12,19,46,-1.10
2007,01,12,19,47,-1.10
2007,01,12,19,48,-1.10
2007,01,12,19,49,-1.10
2007,01,12,19,50,-1.10
2007,01,12,19,51,-1.10
2007,01,12,19,52,-1.10
2007,01,12,19,53,-1.10
2007,01,12,19,54,-1.10
2007,01,12,19,55,-1.10
2007,01,12,19,56,-1.20
2007,01,12,19,57,-1.20
2007,01,12,19,58,-1.20
2007,01,12,19,59,-1.10
2007,01,12,20,00,-1.10
2007,01,12,20,01,-1.10
2007,01,12,20,02,-1.10
2007,01,12,20,03,-1.10
2007,01,12,20,04,-1.10
2007,01,12,20,05,-1.10
2007,01,12,20,06,-1.10
2007,01,12,20,07,-1.10
2007,01,12,20,08,-1.10
2007,01,12,20,09,-1.10
2007,01,12,20,10,-1.10
2007,01,12,20,11,-1.10
2007,01,12,20,12,-1.10
2007,01,12,20,13,-1.00
2007,01,12,20,14,-0.90
2007,01,12,20,15,-0.90
2007,01,12,20,16,-0.90
2007,01,12,20,17,-0.90
2007,01,12,20,18,-1.00
2007,01,12,20,19,-1.10
2007,01,12,20,20,-1.10
2007,01,12,20,21,-1.10
2007,01,12,20,22,-1.10
2007,01,12,20,23,-1.10
2007,01,12,20,24,-1.10
2007,01,12,20,25,-1.10
2007,01,12,20,26,-1.10
2007,01,12,20,27,-1.10
2007,01,12,20,28,-1.10
2007,01,12,20,29,-1.10
2007,01,12,20,30,-1.10
2007,01,12,20,31,-1.10
2007,01,12,20,32,-1.10
2007,01,12,20,33,-1.10
2007,01,12,20,34,-1.10
2007,01,12,20,35,-1.10
2007,01,12,20,36,-1.20
2007,01,12,20,37,-1.20
2007,01,12,20,38,-1.20
2007,01,12,20,39,-1.20
2007,01,12,20,40,-1.30
2007,01,12,20,41,-1.30
2007,01,12,20,42,-1.40
2007,01,12,20,43,-1.40
2007,01,12,20,44,-1.40
2007,01,12,20,45,-1.40
2007,01,12,20,46,-1.30
2007,01,12,20,47,-1.40
2007,01,12,20,48,-1.40
2007,01,12,20,49,-1.40
2007,01,12,20,50,-1.40
2007,01,12,20,51,-1.40
2007,01,12,20,52,-1.40
2007,01,12,20,53,-1.40
2007,01,12,20,54,-1.50
2007,01,12,20,55,-1.50
2007,01,12,20,56,-1.60